Time,TemperatureF,DewpointF,PressureIn,WindDirection,WindDirectionDegrees,WindSpeedMPH,WindSpeedGustMPH,Humidity,HourlyPrecipIn,Conditions,Clouds,dailyrainin,SoftwareType,DateUTC
2013-05-05 00:02:00,47.0,-99.9,-100.00,ENE,58,3.0,-999.0,-999,0.00,,,0.01,,2013-05-05 05:02:00,
2013-05-05 00:12:00,47.0,-99.9,-100.00,ENE,58,3.0,-999.0,-999,0.00,,,0.01,,2013-05-05 05:12:00,
2013-05-05 00:22:00,47.0,-99.9,-100.00,ENE,58,3.0,-999.0,-999,0.00,,,0.01,,2013-05-05 05:22:00,
2013-05-05 00:32:00,47.0,-99.9,-100.00,North,2,3.0,-999.0,-999,0.00,,,0.01,,2013-05-05 05:32:00,
2013-05-05 00:42:00,47.0,-99.9,-100.00,North,2,3.0,-999.0,-999,0.00,,,0.01,,2013-05-05 05:42:00,
2013-05-05 00:52:00,47.0,-99.9,-100.00,North,2,3.0,-999.0,-999,0.00,,,0.01,,2013-05-05 05:52:00,
2013-05-05 01:02:00,48.0,-99.9,-100.00,NNE,21,3.0,-999.0,-999,0.00,,,0.01,,2013-05-05 06:02:00,
2013-05-05 01:12:00,48.0,-99.9,-100.00,NNE,21,3.0,-999.0,-999,0.00,,,0.01,,2013-05-05 06:12:00,
2013-05-05 01:22:00,48.0,-99.9,-100.00,NNE,21,3.0,-999.0,-999,0.00,,,0.01,,2013-05-05 06:22:00,
2013-05-05 01:32:00,47.0,-99.9,-100.00,NNE,27,4.0,-999.0,-999,0.00,,,0.01,,2013-05-05 06:32:00,
2013-05-05 01:42:00,47.0,-99.9,-100.00,NNE,27,4.0,-999.0,-999,0.00,,,0.01,,2013-05-05 06:42:00,
2013-05-05 01:52:00,47.0,-99.9,-100.00,NNE,27,4.0,-999.0,-999,0.00,,,0.01,,2013-05-05 06:52:00,
2013-05-05 02:01:00,47.0,-99.9,-100.00,NNE,21,5.0,-999.0,-999,0.00,,,0.01,,2013-05-05 07:01:00,
2013-05-05 02:11:00,47.0,-99.9,-100.00,NNE,21,5.0,-999.0,-999,0.00,,,0.01,,2013-05-05 07:11:00,
2013-05-05 02:22:00,47.0,-99.9,-100.00,NNE,21,5.0,-999.0,-999,0.00,,,0.01,,2013-05-05 07:22:00,
2013-05-05 02:32:00,47.0,-99.9,-100.00,NNE,14,4.0,-999.0,-999,0.00,,,0.01,,2013-05-05 07:32:00,
2013-05-05 02:42:00,47.0,-99.9,-100.00,NNE,14,4.0,-999.0,-999,0.00,,,0.01,,2013-05-05 07:42:00,
2013-05-05 02:52:00,47.0,-99.9,-100.00,NNE,14,4.0,-999.0,-999,0.00,,,0.01,,2013-05-05 07:52:00,
2013-05-05 03:00:00,47.0,-99.9,-100.00,NNE,12,2.0,-999.0,-999,0.00,,,0.01,,2013-05-05 08:00:00,
2013-05-05 03:03:00,47.0,-99.9,-100.00,NE,46,2.0,-999.0,-999,0.00,,,0.01,,2013-05-05 08:03:00,
2013-05-05 03:12:00,47.0,-99.9,-100.00,NE,46,2.0,-999.0,-999,0.00,,,0.01,,2013-05-05 08:12:00,
2013-05-05 03:22:00,47.0,-99.9,-100.00,NE,46,2.0,-999.0,-999,0.00,,,0.01,,2013-05-05 08:22:00,
2013-05-05 03:32:00,47.0,-99.9,-100.00,NNE,12,2.0,-999.0,-999,0.00,,,0.01,,2013-05-05 08:32:00,
2013-05-05 03:42:00,47.0,-99.9,-100.00,NNE,12,2.0,-999.0,-999,0.00,,,0.01,,2013-05-05 08:42:00,
2013-05-05 03:53:00,47.0,-99.9,-100.00,NNE,12,2.0,-999.0,-999,0.00,,,0.01,,2013-05-05 08:53:00,
2013-05-05 04:33:00,47.0,-99.9,-100.00,NNW,335,4.0,-999.0,-999,0.00,,,0.01,,2013-05-05 09:33:00,
2013-05-05 04:42:00,47.0,-99.9,-100.00,NNW,335,4.0,-999.0,-999,0.00,,,0.01,,2013-05-05 09:42:00,
2013-05-05 04:53:00,47.0,-99.9,-100.00,NNW,335,4.0,-999.0,-999,0.00,,,0.01,,2013-05-05 09:53:00,
2013-05-05 05:03:00,47.0,-99.9,-100.00,NW,313,3.0,-999.0,-999,0.00,,,0.01,,2013-05-05 10:03:00,
2013-05-05 05:12:00,47.0,-99.9,-100.00,NW,313,3.0,-999.0,-999,0.00,,,0.01,,2013-05-05 10:12:00,
2013-05-05 05:22:00,47.0,-99.9,-100.00,NW,313,3.0,-999.0,-999,0.00,,,0.01,,2013-05-05 10:22:00,
2013-05-05 05:32:00,48.0,-99.9,-100.00,NW,312,2.0,-999.0,-999,0.00,,,0.01,,2013-05-05 10:32:00,
2013-05-05 05:42:00,48.0,-99.9,-100.00,NW,312,2.0,-999.0,-999,0.00,,,0.01,,2013-05-05 10:42:00,
2013-05-05 05:53:00,48.0,-99.9,-100.00,NW,312,2.0,-999.0,-999,0.00,,,0.01,,2013-05-05 10:53:00,
2013-05-05 06:02:00,48.0,-99.9,-100.00,WNW,291,1.0,-999.0,-999,0.00,,,0.01,,2013-05-05 11:02:00,
2013-05-05 06:12:00,48.0,-99.9,-100.00,WNW,291,1.0,-999.0,-999,0.00,,,0.01,,2013-05-05 11:12:00,
2013-05-05 06:22:00,48.0,-99.9,-100.00,WNW,291,1.0,-999.0,-999,0.00,,,0.01,,2013-05-05 11:22:00,
2013-05-05 06:32:00,48.0,-99.9,-100.00,NW,307,3.0,-999.0,-999,0.00,,,0.01,,2013-05-05 11:32:00,
2013-05-05 06:42:00,48.0,-99.9,-100.00,NW,307,3.0,-999.0,-999,0.00,,,0.01,,2013-05-05 11:42:00,
2013-05-05 06:52:00,48.0,-99.9,-100.00,NW,307,3.0,-999.0,-999,0.00,,,0.01,,2013-05-05 11:52:00,
2013-05-05 07:02:00,48.0,-99.9,-100.00,NNW,339,3.0,-999.0,-999,0.00,,,0.01,,2013-05-05 12:02:00,
2013-05-05 07:12:00,48.0,-99.9,-100.00,NNW,339,3.0,-999.0,-999,0.00,,,0.01,,2013-05-05 12:12:00,
2013-05-05 07:22:00,48.0,-99.9,-100.00,NNW,339,3.0,-999.0,-999,0.00,,,0.01,,2013-05-05 12:22:00,
2013-05-05 07:32:00,48.0,-99.9,-100.00,NW,313,4.0,-999.0,-999,0.00,,,0.01,,2013-05-05 12:32:00,
2013-05-05 07:42:00,48.0,-99.9,-100.00,NW,313,4.0,-999.0,-999,0.00,,,0.01,,2013-05-05 12:42:00,
2013-05-05 07:52:00,48.0,-99.9,-100.00,NW,313,4.0,-999.0,-999,0.00,,,0.01,,2013-05-05 12:52:00,
2013-05-05 08:02:00,48.0,-99.9,-100.00,WNW,301,2.0,-999.0,-999,0.00,,,0.01,,2013-05-05 13:02:00,
2013-05-05 08:11:00,48.0,-99.9,-100.00,WNW,301,2.0,-999.0,-999,0.00,,,0.01,,2013-05-05 13:11:00,
2013-05-05 08:22:00,48.0,-99.9,-100.00,WNW,301,2.0,-999.0,-999,0.00,,,0.01,,2013-05-05 13:22:00,
2013-05-05 08:32:00,49.0,-99.9,-100.00,NW,313,4.0,-999.0,-999,0.00,,,0.01,,2013-05-05 13:32:00,
2013-05-05 08:42:00,49.0,-99.9,-100.00,NW,313,4.0,-999.0,-999,0.00,,,0.01,,2013-05-05 13:42:00,
2013-05-05 08:52:00,49.0,-99.9,-100.00,NW,313,4.0,-999.0,-999,0.00,,,0.01,,2013-05-05 13:52:00,
2013-05-05 09:02:00,50.0,-99.9,-100.00,NW,312,5.0,-999.0,-999,0.00,,,0.01,,2013-05-05 14:02:00,
2013-05-05 09:11:00,50.0,-99.9,-100.00,NW,312,5.0,-999.0,-999,0.00,,,0.01,,2013-05-05 14:11:00,
2013-05-05 09:22:00,50.0,-99.9,-100.00,NW,312,5.0,-999.0,-999,0.00,,,0.01,,2013-05-05 14:22:00,
2013-05-05 09:32:00,52.0,-99.9,-100.00,NNW,338,3.0,-999.0,-999,0.00,,,0.01,,2013-05-05 14:32:00,
2013-05-05 09:42:00,52.0,-99.9,-100.00,NNW,338,3.0,-999.0,-999,0.00,,,0.01,,2013-05-05 14:42:00,
2013-05-05 09:52:00,52.0,-99.9,-100.00,NNW,338,3.0,-999.0,-999,0.00,,,0.01,,2013-05-05 14:52:00,
2013-05-05 10:02:00,53.0,-99.9,-100.00,NNW,347,6.0,-999.0,-999,0.00,,,0.00,,2013-05-05 15:02:00,
2013-05-05 10:11:00,53.0,-99.9,-100.00,NNW,347,6.0,-999.0,-999,0.00,,,0.00,,2013-05-05 15:11:00,
2013-05-05 10:22:00,53.0,-99.9,-100.00,NNW,347,6.0,-999.0,-999,0.00,,,0.00,,2013-05-05 15:22:00,
2013-05-05 10:33:00,55.0,-99.9,-100.00,North,355,6.0,-999.0,-999,0.00,,,0.00,,2013-05-05 15:33:00,
2013-05-05 10:43:00,55.0,-99.9,-100.00,North,355,6.0,-999.0,-999,0.00,,,0.00,,2013-05-05 15:43:00,
2013-05-05 10:54:00,55.0,-99.9,-100.00,North,355,6.0,-999.0,-999,0.00,,,0.00,,2013-05-05 15:54:00,
2013-05-05 11:03:00,56.0,-99.9,-100.00,North,353,8.0,-999.0,-999,0.00,,,0.00,,2013-05-05 16:03:00,
2013-05-05 11:12:00,56.0,-99.9,-100.00,North,353,8.0,-999.0,-999,0.00,,,0.00,,2013-05-05 16:12:00,
2013-05-05 11:23:00,56.0,-99.9,-100.00,North,353,8.0,-999.0,-999,0.00,,,0.00,,2013-05-05 16:23:00,
2013-05-05 11:32:00,57.0,-99.9,-100.00,NNW,327,7.0,-999.0,-999,0.00,,,0.00,,2013-05-05 16:32:00,
2013-05-05 11:42:00,57.0,-99.9,-100.00,NNW,327,7.0,-999.0,-999,0.00,,,0.00,,2013-05-05 16:42:00,
2013-05-05 11:53:00,57.0,-99.9,-100.00,NNW,327,7.0,-999.0,-999,0.00,,,0.00,,2013-05-05 16:53:00,
2013-05-05 12:02:00,59.0,-99.9,-100.00,North,358,11.0,-999.0,-999,0.00,,,0.00,,2013-05-05 17:02:00,
2013-05-05 12:12:00,59.0,-99.9,-100.00,North,358,11.0,-999.0,-999,0.00,,,0.00,,2013-05-05 17:12:00,
2013-05-05 12:24:00,59.0,-99.9,-100.00,North,358,11.0,-999.0,-999,0.00,,,0.00,,2013-05-05 17:24:00,
2013-05-05 12:32:00,59.0,-99.9,-100.00,NNW,338,11.0,-999.0,-999,0.00,,,0.00,,2013-05-05 17:32:00,
2013-05-05 12:42:00,59.0,-99.9,-100.00,NNW,338,11.0,-999.0,-999,0.00,,,0.00,,2013-05-05 17:42:00,
2013-05-05 12:52:00,59.0,-99.9,-100.00,NNW,338,11.0,-999.0,-999,0.00,,,0.00,,2013-05-05 17:52:00,
2013-05-05 13:01:00,60.0,-99.9,-100.00,NNW,340,14.0,-999.0,-999,0.00,,,0.00,,2013-05-05 18:01:00,
2013-05-05 13:12:00,60.0,-99.9,-100.00,NNW,340,14.0,-999.0,-999,0.00,,,0.00,,2013-05-05 18:12:00,
2013-05-05 13:22:00,60.0,-99.9,-100.00,NNW,340,14.0,-999.0,-999,0.00,,,0.00,,2013-05-05 18:22:00,
2013-05-05 13:32:00,61.0,-99.9,-100.00,North,350,11.0,-999.0,-999,0.00,,,0.00,,2013-05-05 18:32:00,
2013-05-05 13:42:00,61.0,-99.9,-100.00,North,350,11.0,-999.0,-999,0.00,,,0.00,,2013-05-05 18:42:00,
2013-05-05 13:52:00,61.0,-99.9,-100.00,North,350,11.0,-999.0,-999,0.00,,,0.00,,2013-05-05 18:52:00,
2013-05-05 14:02:00,63.0,-99.9,-100.00,NNW,340,13.0,-999.0,-999,0.00,,,0.00,,2013-05-05 19:02:00,
2013-05-05 14:12:00,63.0,-99.9,-100.00,NNW,340,13.0,-999.0,-999,0.00,,,0.00,,2013-05-05 19:12:00,
2013-05-05 14:22:00,63.0,-99.9,-100.00,NNW,340,13.0,-999.0,-999,0.00,,,0.00,,2013-05-05 19:22:00,
2013-05-05 14:32:00,65.0,-99.9,-100.00,NNW,337,10.0,-999.0,-999,0.00,,,0.00,,2013-05-05 19:32:00,
2013-05-05 14:42:00,65.0,-99.9,-100.00,NNW,337,10.0,-999.0,-999,0.00,,,0.00,,2013-05-05 19:42:00,
2013-05-05 14:52:00,65.0,-99.9,-100.00,NNW,337,10.0,-999.0,-999,0.00,,,0.00,,2013-05-05 19:52:00,
2013-05-05 15:02:00,65.0,-99.9,-100.00,North,1,11.0,-999.0,-999,0.00,,,0.00,,2013-05-05 20:02:00,
2013-05-05 15:11:00,65.0,-99.9,-100.00,North,1,11.0,-999.0,-999,0.00,,,0.00,,2013-05-05 20:11:00,
2013-05-05 15:21:00,65.0,-99.9,-100.00,North,1,11.0,-999.0,-999,0.00,,,0.00,,2013-05-05 20:21:00,
2013-05-05 15:30:00,67.0,-99.9,-100.00,North,7,12.0,-999.0,-999,0.00,,,0.00,,2013-05-05 20:30:00,
2013-05-05 15:32:00,67.0,-99.9,-100.00,North,355,13.0,-999.0,-999,0.00,,,0.00,,2013-05-05 20:32:00,
2013-05-05 15:42:00,67.0,-99.9,-100.00,North,355,13.0,-999.0,-999,0.00,,,0.00,,2013-05-05 20:42:00,
2013-05-05 15:52:00,67.0,-99.9,-100.00,North,355,13.0,-999.0,-999,0.00,,,0.00,,2013-05-05 20:52:00,
2013-05-05 16:02:00,67.0,-99.9,-100.00,North,7,12.0,-999.0,-999,0.00,,,0.00,,2013-05-05 21:02:00,
2013-05-05 16:11:00,67.0,-99.9,-100.00,North,7,12.0,-999.0,-999,0.00,,,0.00,,2013-05-05 21:11:00,
2013-05-05 16:22:00,67.0,-99.9,-100.00,North,7,12.0,-999.0,-999,0.00,,,0.00,,2013-05-05 21:22:00,
2013-05-05 17:03:00,65.0,-99.9,-100.00,North,352,15.0,-999.0,-999,0.00,,,0.00,,2013-05-05 22:03:00,
2013-05-05 17:12:00,65.0,-99.9,-100.00,North,352,15.0,-999.0,-999,0.00,,,0.00,,2013-05-05 22:12:00,
2013-05-05 17:23:00,65.0,-99.9,-100.00,North,352,15.0,-999.0,-999,0.00,,,0.00,,2013-05-05 22:23:00,
2013-05-05 17:34:00,66.0,-99.9,-100.00,NNW,340,10.0,-999.0,-999,0.00,,,0.00,,2013-05-05 22:34:00,
2013-05-05 17:42:00,66.0,-99.9,-100.00,NNW,340,10.0,-999.0,-999,0.00,,,0.00,,2013-05-05 22:42:00,
2013-05-05 17:52:00,66.0,-99.9,-100.00,NNW,340,10.0,-999.0,-999,0.00,,,0.00,,2013-05-05 22:52:00,
2013-05-05 18:02:00,63.0,-99.9,-100.00,North,4,15.0,-999.0,-999,0.00,,,0.00,,2013-05-05 23:02:00,
2013-05-05 18:12:00,63.0,-99.9,-100.00,North,4,15.0,-999.0,-999,0.00,,,0.00,,2013-05-05 23:12:00,
2013-05-05 18:22:00,63.0,-99.9,-100.00,North,4,15.0,-999.0,-999,0.00,,,0.00,,2013-05-05 23:22:00,
2013-05-05 18:32:00,62.0,-99.9,-100.00,NNW,341,7.0,-999.0,-999,0.00,,,0.00,,2013-05-05 23:32:00,
2013-05-05 18:42:00,62.0,-99.9,-100.00,NNW,341,7.0,-999.0,-999,0.00,,,0.00,,2013-05-05 23:42:00,
2013-05-05 18:52:00,62.0,-99.9,-100.00,NNW,341,7.0,-999.0,-999,0.00,,,0.00,,2013-05-05 23:52:00,
2013-05-05 19:01:00,63.0,-99.9,-100.00,North,358,8.0,-999.0,-999,0.00,,,0.00,,2013-05-06 00:01:00,
2013-05-05 19:11:00,63.0,-99.9,-100.00,North,358,8.0,-999.0,-999,0.00,,,0.00,,2013-05-06 00:11:00,
2013-05-05 19:22:00,63.0,-99.9,-100.00,North,358,8.0,-999.0,-999,0.00,,,0.00,,2013-05-06 00:22:00,
2013-05-05 19:32:00,62.0,-99.9,-100.00,NNE,19,5.0,-999.0,-999,0.00,,,0.00,,2013-05-06 00:32:00,
2013-05-05 19:42:00,62.0,-99.9,-100.00,NNE,19,5.0,-999.0,-999,0.00,,,0.00,,2013-05-06 00:42:00,
2013-05-05 19:52:00,62.0,-99.9,-100.00,NNE,19,5.0,-999.0,-999,0.00,,,0.00,,2013-05-06 00:52:00,
2013-05-05 20:00:00,61.0,-99.9,-100.00,South,184,2.0,-999.0,-999,0.00,,,0.00,,2013-05-06 01:00:00,
2013-05-05 20:01:00,62.0,-99.9,-100.00,North,350,5.0,-999.0,-999,0.00,,,0.00,,2013-05-06 01:01:00,
2013-05-05 20:11:00,62.0,-99.9,-100.00,North,350,5.0,-999.0,-999,0.00,,,0.00,,2013-05-06 01:11:00,
2013-05-05 20:21:00,62.0,-99.9,-100.00,North,350,5.0,-999.0,-999,0.00,,,0.00,,2013-05-06 01:21:00,
2013-05-05 20:32:00,61.0,-99.9,-100.00,South,184,2.0,-999.0,-999,0.00,,,0.00,,2013-05-06 01:32:00,
2013-05-05 20:42:00,61.0,-99.9,-100.00,South,184,2.0,-999.0,-999,0.00,,,0.00,,2013-05-06 01:42:00,
2013-05-05 20:52:00,61.0,-99.9,-100.00,South,184,2.0,-999.0,-999,0.00,,,0.00,,2013-05-06 01:52:00,
2013-05-05 21:00:00,60.0,-99.9,-100.00,WNW,293,4.0,-999.0,-999,0.03,,,0.03,,2013-05-06 02:00:00,
2013-05-05 21:32:00,60.0,-99.9,-100.00,WNW,293,4.0,-999.0,-999,0.03,,,0.03,,2013-05-06 02:32:00,
2013-05-05 21:42:00,60.0,-99.9,-100.00,WNW,293,4.0,-999.0,-999,0.03,,,0.03,,2013-05-06 02:42:00,
2013-05-05 21:52:00,60.0,-99.9,-100.00,WNW,293,4.0,-999.0,-999,0.03,,,0.03,,2013-05-06 02:52:00,
2013-05-05 22:33:00,60.0,-99.9,-100.00,NE,37,2.0,-999.0,-999,0.00,,,0.03,,2013-05-06 03:33:00,
2013-05-05 22:43:00,60.0,-99.9,-100.00,NE,37,2.0,-999.0,-999,0.00,,,0.03,,2013-05-06 03:43:00,
2013-05-05 22:53:00,60.0,-99.9,-100.00,NE,37,2.0,-999.0,-999,0.00,,,0.03,,2013-05-06 03:53:00,
2013-05-05 23:02:00,58.0,-99.9,-100.00,SE,138,1.0,-999.0,-999,0.00,,,0.03,,2013-05-06 04:02:00,
2013-05-05 23:12:00,58.0,-99.9,-100.00,SE,138,1.0,-999.0,-999,0.00,,,0.03,,2013-05-06 04:12:00,
2013-05-05 23:23:00,58.0,-99.9,-100.00,SE,138,1.0,-999.0,-999,0.00,,,0.03,,2013-05-06 04:23:00,
2013-05-05 23:32:00,58.0,-99.9,-100.00,South,176,1.0,-999.0,-999,0.00,,,0.03,,2013-05-06 04:32:00,
2013-05-05 23:43:00,58.0,-99.9,-100.00,South,176,1.0,-999.0,-999,0.00,,,0.03,,2013-05-06 04:43:00,
2013-05-05 23:53:00,58.0,-99.9,-100.00,South,176,1.0,-999.0,-999,0.00,,,0.03,,2013-05-06 04:53:00,